Estación de San Felipe

Ultimos registro cada 15 minutos 79
Estación Fecha / Hora Temperatura Humedad Lluvia Velocidad Dirección Radiación Presion
79 San Felipe 03-05-2026 19:30 15,9 40,6 0 0 302 0,6 939,7
78 San Felipe 03-05-2026 19:15 16,6 39,3 0 0 302 0,6 939,5
77 San Felipe 03-05-2026 19:00 16,7 39,2 0 0 302 0,6 939,4
76 San Felipe 03-05-2026 18:45 17,9 36,7 0 0 305 0,6 939,2
75 San Felipe 03-05-2026 18:30 18,4 35,7 0 0 309 0,6 939
74 San Felipe 03-05-2026 18:15 20,6 30,8 0 0 1 0,6 938,8
73 San Felipe 03-05-2026 18:00 21,3 29,6 0 0 42 4,4 938,7
72 San Felipe 03-05-2026 17:45 22,5 27,4 0 0,5 187 13,1 938,6
71 San Felipe 03-05-2026 17:30 23,7 26,7 0 0,5 204 19,4 938,5
70 San Felipe 03-05-2026 17:15 24,1 27 0 0 190 29,4 938,2
69 San Felipe 03-05-2026 17:00 24,8 26 0 0 204 48,1 937,9
68 San Felipe 03-05-2026 16:45 26,1 25,9 0 0,5 239 124,4 937,9
67 San Felipe 03-05-2026 16:30 27,4 24,9 0 1 195 216,9 937,8
66 San Felipe 03-05-2026 16:15 27,1 25,8 0 1,5 174 245,6 937,8
65 San Felipe 03-05-2026 16:00 27,7 26,8 0 1 183 293,1 937,8
64 San Felipe 03-05-2026 15:45 28 26,8 0 1,5 177 308,1 937,9
63 San Felipe 03-05-2026 15:30 27,6 27,2 0 2 174 340,6 937,9
62 San Felipe 03-05-2026 15:15 29,1 25,8 0 1 202 371,9 937,7
61 San Felipe 03-05-2026 15:00 31,8 23,3 0 0 246 404,4 937,7
60 San Felipe 03-05-2026 14:45 31 22,7 0 0 272 431,9 937,6
59 San Felipe 03-05-2026 14:30 31,7 22,8 0 0 291 455,6 937,8
58 San Felipe 03-05-2026 14:15 30 25,3 0 0 338 476,9 937,8
57 San Felipe 03-05-2026 14:00 29,8 24,7 0 0 284 495,6 937,9
56 San Felipe 03-05-2026 13:45 29,7 26,5 0 0 219 41,9 938,3
55 San Felipe 03-05-2026 13:30 29,2 25,6 0 0 234 40,6 938,5
54 San Felipe 03-05-2026 13:15 29,5 28,2 0 0 330 470,6 938,6
53 San Felipe 03-05-2026 13:00 28,1 30,3 0 0 312 543,1 938,8
52 San Felipe 03-05-2026 12:45 28,3 30,4 0 0 305 550,6 938,9
51 San Felipe 03-05-2026 12:30 27,5 29,3 0 0 256 549,4 939
50 San Felipe 03-05-2026 12:15 27,7 29,9 0 0 320 544,4 939,1
49 San Felipe 03-05-2026 12:00 27,1 30 0 0 309 536,9 939,3
48 San Felipe 03-05-2026 11:45 25,4 31,6 0 0 313 525,6 939,5
47 San Felipe 03-05-2026 11:30 25,1 33,2 0 0 310 511,9 939,5
46 San Felipe 03-05-2026 11:15 25,1 32,9 0 0 331 493,1 939,6
45 San Felipe 03-05-2026 11:00 24,5 35,3 0 0 133 471,9 940
44 San Felipe 03-05-2026 10:45 22,3 39 0 0 161 445,6 940,1
43 San Felipe 03-05-2026 10:30 20,6 41,4 0 0 32 419,4 940,4
42 San Felipe 03-05-2026 10:15 18,7 44,1 0 0 15 328,1 940,4
41 San Felipe 03-05-2026 10:00 17,6 47,9 0 0 14 34,4 940,5
40 San Felipe 03-05-2026 09:45 17,5 51,8 0 0 14 203,1 940,7
39 San Felipe 03-05-2026 09:30 15,3 54 0 0 17 70,6 940,6
38 San Felipe 03-05-2026 09:15 14 58,5 0 0 17 34,4 940,5
37 San Felipe 03-05-2026 09:00 15,3 54,7 0 0 17 59,4 940,5
36 San Felipe 03-05-2026 08:45 12,8 61,7 0 0 17 190,6 940,4
35 San Felipe 03-05-2026 08:30 12,1 64,9 0 0 17 154,4 940,2
34 San Felipe 03-05-2026 08:15 8,4 75,9 0 0 17 21,9 940
33 San Felipe 03-05-2026 08:00 6,3 81,1 0 0 17 29,4 939,9
32 San Felipe 03-05-2026 07:45 5 83,2 0 0 17 5,6 939,8
31 San Felipe 03-05-2026 07:30 5,1 83,9 0 0 17 3,1 939,6
30 San Felipe 03-05-2026 07:15 4,5 86,2 0 0 17 0,6 939,4
29 San Felipe 03-05-2026 07:00 5 85,7 0 0 17 0,6 939,4
28 San Felipe 03-05-2026 06:45 4,8 85,3 0 0 17 0,6 939,3
27 San Felipe 03-05-2026 06:30 4,7 84,5 0 0 17 0,6 939,4
26 San Felipe 03-05-2026 06:15 5,3 81,1 0 0 17 0,6 939,4
25 San Felipe 03-05-2026 06:00 6,2 80,5 0 0 15 0,6 939,4
24 San Felipe 03-05-2026 05:45 6,1 83,8 0 0 3 0,6 939,4
23 San Felipe 03-05-2026 05:30 5,7 83,6 0 0 348 0,6 939,3
22 San Felipe 03-05-2026 05:15 5,8 85,3 0 0 261 0,6 939,5
21 San Felipe 03-05-2026 05:00 5,2 85,2 0 0 257 0,6 939,6
20 San Felipe 03-05-2026 04:45 5,4 84,6 0 0 257 0,6 939,6
19 San Felipe 03-05-2026 04:30 5,5 84,1 0 0 257 0,6 939,5
18 San Felipe 03-05-2026 04:15 5,8 82 0 0 257 0,6 939,8
17 San Felipe 03-05-2026 04:00 6,8 80,6 0 0 244 0,6 939,6
16 San Felipe 03-05-2026 03:45 6 85,4 0 0 230 0,6 939,5
15 San Felipe 03-05-2026 03:30 5,7 84,1 0 0 230 0,6 939,5
14 San Felipe 03-05-2026 03:15 6,1 82,7 0 0 230 0,6 939,4
13 San Felipe 03-05-2026 03:00 7,1 79,5 0 0 233 0,6 939,4
12 San Felipe 03-05-2026 02:45 7,5 80,2 0 0 260 0,6 939,3
11 San Felipe 03-05-2026 02:30 6,9 82,5 0 0 265 0,6 939,6
10 San Felipe 03-05-2026 02:15 6,7 83,9 0 0 237 0,6 939,4
9 San Felipe 03-05-2026 02:00 6,1 82,9 0 0 230 0,6 939,7
8 San Felipe 03-05-2026 01:45 6,9 79,9 0 0 230 0,6 939,8
7 San Felipe 03-05-2026 01:30 7,3 80,9 0 0 234 0,6 939,8
6 San Felipe 03-05-2026 01:15 6,3 81,7 0 0 239 0,6 940
5 San Felipe 03-05-2026 01:00 6,6 81,6 0 0 239 0,6 940
4 San Felipe 03-05-2026 00:45 6,7 81 0 0 239 0,6 939,9
3 San Felipe 03-05-2026 00:30 7,1 79,5 0 0 239 0,6 939,8
2 San Felipe 03-05-2026 00:15 7 79,9 0 0 239 0,6 939,9
1 San Felipe 03-05-2026 00:00 7,3 78,5 0 0 239 0,6 939,9